Flag for Finland Weather past 2 weeks in Helsinki, Finland

Now
39 °F

Sprinkles. Overcast.


Feels Like: 32 °F
Forecast: 38 / 44 °F
Wind: 13 mph from North

Location: Helsinki Malmi Airport

Current Time: Sep 23, 2014 at 1:26:08 AM

Latest Report: Sep 23, 2014 at 12:50 AM


Visibility: N/A

Pressure: 29.62 "Hg

Humidity: 87%

Dew point: 36 °F

Location of HelsinkiLocation

Historic Weather in Helsinki — Graph

°F

Helsinki temperature yesterday

Maximum temperature yesterday: 57 °F (at 12:44 PM)
Minimum temperature yesterday: 39 °F (at 11:20 PM)
Average temperature yesterday: 49 °F

Past Weeks' High & Low Weather Summary

 TemperatureHumidityPressure
High68 °F (Sep 8, 3:20 PM)100% (Sep 8, 12:50 AM)30.45 "Hg (Sep 8, 12:50 AM)
Low36 °F (Sep 16, 5:50 AM)49% (Sep 15, 12:20 PM)29.59 "Hg (Sep 22, 5:20 AM)
Average54 °F87%30.16 "Hg
* Reported Sep 8 12:50 AM — Sep 23 12:20 AM, Helsinki, Weather by CustomWeather, © 2014

Note: Actual official high and low records may vary slightly from our data, if they occured in-between our weather recording intervals... More about our weather records

Advertising

Helsinki weather history for previous 24 hours

 ConditionsComfort  
Time TempWeatherWind HumidityBarometerVisibility
12:20 AM
Sep 23
39 °FSprinkles. Overcast.13 mph93%29.62 "HgN/A
11:50 PM
Sep 22
39 °FDrizzle. Overcast.10 mph93%29.62 "HgN/A
11:20 PM39 °FDrizzle. Overcast.14 mph93%29.62 "HgN/A
10:50 PM41 °FLight rain. Overcast.14 mph93%29.62 "HgN/A
10:20 PM41 °FDrizzle. Overcast.14 mph93%29.62 "HgN/A
9:50 PM43 °FLight rain. Overcast.14 mph87%29.59 "HgN/A
9:20 PM43 °FLight rain. Low clouds.13 mph93%29.59 "HgN/A
8:50 PM43 °FLight rain. Passing clouds.12 mph93%29.59 "HgN/A
8:20 PM45 °FLight rain. Partly sunny.10 mph87%29.59 "HgN/A
7:50 PM45 °FLight rain. Partly sunny.12 mph93%29.59 "HgN/A
7:20 PM45 °FLight rain. Partly sunny.10 mph93%29.59 "HgN/A
6:50 PM45 °FLight rain. Partly sunny.10 mph93%29.59 "HgN/A
6:20 PM46 °FLight rain. Partly sunny.12 mph93%29.59 "HgN/A
5:50 PM46 °FRain. Partly sunny.10 mph93%29.59 "Hg5 mi
5:20 PM48 °FRain. Partly sunny.7 mph94%29.59 "HgN/A
4:50 PM48 °FRain. Partly sunny.9 mph100%29.59 "Hg5 mi
4:20 PM50 °FLight rain. Partly sunny.9 mph94%29.59 "Hg5 mi
3:50 PM52 °FRain. Partly sunny.9 mph94%29.59 "Hg4 mi
3:20 PM54 °FRain. Partly sunny.8 mph94%29.59 "Hg2 mi
2:50 PM54 °FLight rain. Partly sunny.6 mph100%29.59 "Hg4 mi
2:20 PM55 °FLight rain. Partly sunny.3 mph94%29.59 "Hg4 mi
1:50 PM55 °FLight rain. Partly sunny.2 mph100%29.59 "Hg5 mi
1:20 PM57 °FLight rain. Partly sunny.2 mph88%29.59 "HgN/A
12:50 PM57 °FLight rain. Partly sunny.1 mph88%29.59 "HgN/A
12:44 PM57 °FLight rain. Partly sunny.1 mph88%29.59 "HgN/A
12:20 PM55 °FLight rain. Partly sunny.2 mph94%29.59 "HgN/A
11:50 AM55 °FSprinkles. Partly sunny.No wind94%29.59 "HgN/A
11:20 AM55 °FBroken clouds.1 mph94%29.59 "HgN/A
10:50 AM54 °FBroken clouds.2 mph94%29.59 "HgN/A
10:20 AM54 °FPartly sunny.1 mph94%29.59 "HgN/A
9:50 AM54 °FPartly sunny.1 mph94%29.59 "HgN/A
9:20 AM54 °FPartly sunny.1 mph94%29.59 "HgN/A
8:50 AM54 °FBroken clouds.2 mph94%29.59 "HgN/A
8:20 AM52 °FPartly sunny.1 mph100%29.59 "Hg6 mi
7:50 AM52 °FOvercast.No wind100%29.59 "Hg6 mi
7:20 AM52 °FMostly cloudy.No wind94%29.59 "Hg4 mi
6:50 AM50 °FOvercast.No wind100%29.59 "Hg5 mi
6:20 AM50 °FPassing clouds.1 mph100%29.59 "Hg4 mi
5:50 AM45 °FFog.No wind100%29.62 "Hg2 mi
5:20 AM45 °FFog.No wind100%29.59 "Hg3 mi
4:50 AM45 °FFog.1 mph100%29.62 "Hg1 mi
4:20 AM45 °FPartly cloudy.No wind100%29.62 "Hg0 mi
3:50 AM45 °FPassing clouds.No wind100%29.62 "Hg0 mi
2:50 AM46 °FPassing clouds.No wind100%29.62 "Hg0 mi
2:20 AM45 °FFog.No wind100%29.62 "Hg2 mi
1:50 AM45 °FFog.No wind100%29.62 "Hg0 mi
1:20 AM46 °FFog.No wind100%29.65 "Hg0 mi
Weather by CustomWeather, © 2014

See weather overviewHow to use our weather pages